Overview Statistics Trail Chart Weather Telemetry Raw packets
 

This is the latest recevied weather packets stored in our database for station/object K8WEH. If no packets are shown the sender has not sent any weather packets the latest 10 day(s).

<< 9 10 11 12 13 14 15 >>
Time Temp. Humidity Pressure Rain* Wind** Luminosity Snow
1788555047 30.56° C 69% 1014.5 hPa 0 mm - - -
1788554750 30.56° C 71% 1014.6 hPa 0 mm - - -
1788554445 31.11° C 71% 1014.7 hPa 0 mm - - -
1788554143 31.11° C 70% 1014.8 hPa 0 mm - - -
1788553842 31.11° C 71% 1014.8 hPa 0 mm - - -
1788553540 31.11° C 69% 1014.8 hPa 0 mm - - -
1788553239 31.11° C 71% 1014.8 hPa 0 mm - - -
1788552946 31.11° C 71% 1014.8 hPa 0 mm - - -
1788552636 30.56° C 71% 1014.8 hPa 0 mm - - -
1788552335 30.56° C 71% 1014.9 hPa 0 mm - - -
1788552049 30.56° C 68% 1015 hPa 0 mm - - -
1788551732 30° C 68% 1015 hPa 0 mm - - -
1788551432 29.44° C 67% 1015.1 hPa 0 mm - - -
1788551140 28.89° C 69% 1015.2 hPa 0 mm - - -
1788550827 28.33° C 62% 1015.3 hPa 0 mm - - -
1788550526 27.78° C 40% 1015.4 hPa 0 mm - - -
1788550224 27.22° C 40% 1015.5 hPa 0 mm - - -
1788549924 26.67° C 32% 1015.5 hPa 0 mm - - -
1788549621 26.11° C 33% 1015.5 hPa 0 mm - - -
1788549321 25.56° C 49% 1015.8 hPa 0 mm - - -
1788549018 25° C 60% 1015.8 hPa 0 mm - - -
1788548717 25.56° C 68% 1016.1 hPa 0 mm - - -
1788548475 25.56° C 72% 1016.2 hPa 0 mm - - -
1788548114 26.11° C 73% 1016.3 hPa 0 mm - - -
1788547812 26.67° C 73% 1016.5 hPa 0 mm - - -

* Rain latest hour (hover to see other rain measurements)
** Current wind speed in m/s (hover to see current wind gust speed)